Header for Extended Forecast Station List Page

Search by: ID | Name | Date | Parm | Value | Avg | % Avg
Sort by: ID | Name | Date | Parm | Value | Avg | % Avg

Enter search or view all records.

Click on id for station plot
#IDNameDateParmValueAvg% Avg
0MILI1SNAKE-AT MILNER11-13-2018DISCHARGE (KAF)446527
1PRTI1PRIEST-NEAR PRIEST RIVER11-13-2018DISCHARGE (KAF)6621131
2SATI1ST MARIES-NEAR SANTA11-13-2018DISCHARGE (KAF)154832
3BUDW1BUMPING-BUMPING LAKE DAM11-13-2018INFLOW (KAF)123832
4WRMO3MALHEUR-WARM SPRINGS DAM11-13-2018INFLOW (KAF)123534
5COEI1COEUR D ALENE-COEUR D ALENE LAKE11-13-2018INFLOW (KAF)33190736
6STRM8ST. REGIS-NEAR ST. REGIS11-13-2018DISCHARGE (KAF)174438
7LLKW1SPOKANE-AT LONGLAKE11-13-2018INFLOW (KAF)608141243
8CLFW1NACHES-NEAR CLIFFDEL11-13-2018DISCHARGE (KAF)5211644
9RILW1TIETON-RIMROCK LAKE NEAR RIMROCK11-13-2018INFLOW (KAF)327145
10NACW1NACHES-NEAR NACHES11-13-2018DISCHARGE (KAF)449646
11DWRI1NF CLEARWATER-DWORSHAK DAM11-13-2018INFLOW (KAF)28661846
12TNAW1TEANAWAY-BELOW FORKS11-13-2018DISCHARGE (KAF)245047
13MONO3NF JOHN DAY-AT MONUMENT11-13-2018DISCHARGE (KAF)8216649
14BERO3MALHEUR-AGENCY VALLEY DAM11-13-2018INFLOW (KAF)112250
15HOTI1BRUNEAU-NEAR HOT SPRINGS11-13-2018DISCHARGE (KAF)173254
16TRYO3GRANDE RONDE-TROY11-13-2018DISCHARGE (KAF)20938654
17SERO3JOHN DAY-AT SERVICE CK11-13-2018DISCHARGE (KAF)15428754
18CLUW1CLE ELUM-CLE ELUM LAKE11-13-2018INFLOW (KAF)6010657
19OWYO3OWYHEE-OWYHEE DAM11-13-2018INFLOW (KAF)6310957
20ORFI1CLEARWATER-AT OROFINO11-13-2018DISCHARGE (KAF)45980257
21KEDW1YAKIMA-KEECHELUS LAKE11-13-2018INFLOW (KAF)305159
22SPDI1CLEARWATER-AT SPALDING11-13-2018DISCHARGE (KAF)1105188059
23KADW1KACHESS-KACHESS DAM11-13-2018INFLOW (KAF)294860
24HEII1SNAKE-NEAR HEISE11-13-2018DISCHARGE (KAF)33455960
25WSRI1WEISER-NEAR WEISER11-13-2018DISCHARGE (KAF)7612760
26VALO3MALHEUR-NEAR VALE11-13-2018DISCHARGE (KAF)213561
27CSDI1NF PAYETTE-CASCADE DAM11-13-2018INFLOW (KAF)639864
28LGSW1SNAKE-LITTLE GOOSE DAM11-13-2018INFLOW (KAF)5280823164
29TCHW1WALLA WALLA-NEAR TOUCHET11-13-2018DISCHARGE (KAF)10316164
30PESW1WENATCHEE-AT PESHASTIN11-13-2018DISCHARGE (KAF)19930765
31BULO3BULLY CREEK-BULLY CREEK DAM11-13-2018INFLOW (KAF)3465
32LGDW1SNAKE-LOWER GRANITE DAM11-13-2018INFLOW (KAF)5280816365
33LMNW1SNAKE-LOWER MONUMENTAL DAM11-13-2018INFLOW (KAF)5460837965
34IHDW1SNAKE-ICE HARBOR DAM11-13-2018INFLOW (KAF)5460829366
35KERM8FLATHEAD-KERR DAM11-13-2018INFLOW (KAF)1012149568
36PARW1YAKIMA-NEAR PARKER11-13-2018DISCHARGE (KAF)36953968
37KIOW1YAKIMA-AT KIONA11-13-2018DISCHARGE (KAF)53278268
38SWAI1SNAKE-BELOW SWAN FALLS11-13-2018DISCHARGE (KAF)1780262068
39WGCM8MF FLATHEAD-NEAR WEST GLACIER11-13-2018DISCHARGE (KAF)10615469
40IPDI1HENRYS FORK-ISLAND PARK DAM11-13-2018INFLOW (KAF)7811269
41WEII1SNAKE-AT WEISER11-13-2018DISCHARGE (KAF)2629382269
42ANAW1SNAKE-NEAR ANATONE11-13-2018DISCHARGE (KAF)4174607269
43BFTI1SNAKE-NEAR BLACKFOOT11-13-2018DISCHARGE (KAF)56179571
44LWRI1LITTLE WOOD-LITTLE WOOD DAM11-13-2018INFLOW (KAF)111571
45BRNI1SNAKE-BROWNLEE DAM11-13-2018INFLOW (KAF)2816396571
46ALFW1PEND OREILLE-ALBENI FALLS DAM11-13-2018INFLOW (KAF)3205444472
47EMMI1PAYETTE-NEAR EMMETT11-13-2018DISCHARGE (KAF)27838472
48SNAI1SNAKE-AT BLACKFOOT11-13-2018DISCHARGE (KAF)55375274
49MAGI1BIG WOOD-MAGIC DAM11-13-2018INFLOW (KAF)223074
50CFMM8FLATHEAD-AT COLUMBIA FALLS11-13-2018DISCHARGE (KAF)879115076
51SHYI1SNAKE-NEAR SHELLEY11-13-2018DISCHARGE (KAF)62681677
52BONO3COLUMBIA-BONNEVILLE DAM11-13-2018INFLOW (KAF)304023926577
53DEDI1DEADWOOD-NEAR LOWMAN11-13-2018INFLOW (KAF)151978
54NOXM8CLARK FORK-NOXON RAPIDS DAM11-13-2018INFLOW (KAF)2875362779
55UMTW1YAKIMA-AT UMTANUM11-13-2018DISCHARGE (KAF)22828580
56SIFI1SNAKE-AB EAGLE ROCK NR IDAHO FALLS11-13-2018DISCHARGE (KAF)64380780
57ARAI1SF BOISE-ANDERSON RANCH DAM11-13-2018INFLOW (KAF)637980
58PDTO3UMATILLA-AT PENDLETON11-13-2018DISCHARGE (KAF)8610980
59UNDW1WHITE SALMON-NEAR UNDERWOOD11-13-2018DISCHARGE (KAF)22027680
60PIHI1PORTNEUF-AT POCATELLO11-13-2018DISCHARGE (KAF)556881
61AFRI1SNAKE-AMERICAN FALLS RESERVOIR11-13-2018INFLOW (KAF)1207149281
62GIBO3UMATILLA-NEAR GIBBON11-13-2018DISCHARGE (KAF)354381
63TDAO3COLUMBIA-THE DALLES DAM11-13-2018INFLOW (KAF)296713685881
64CABI1CLARK FORK-CABINET GORGE DAM11-13-2018INFLOW (KAF)3165379783
65LAUW1KETTLE-AT LAURIER11-13-2018DISCHARGE (KAF)10212184
66EASW1YAKIMA-AT EASTON11-13-2018DISCHARGE (KAF)647684
67PITW1KLICKITAT-NEAR PITT11-13-2018DISCHARGE (KAF)28433884
68HODO3HOOD-NEAR TUCKER BRIDGE11-13-2018DISCHARGE (KAF)22226384
69ARDW1ENTIAT-NEAR ARDENVOIR11-13-2018DISCHARGE (KAF)192285
70PATW1METHOW-NEAR PATEROS11-13-2018DISCHARGE (KAF)829686
71JLKW4SNAKE-JACKSON LAKE AT DAM11-13-2018INFLOW (KAF)9911586
72BITM8BITTERROOT-NEAR MISSOULA11-13-2018DISCHARGE (KAF)19022087
73MCDW1COLUMBIA-MCNARY DAM11-13-2018INFLOW (KAF)277383124289
74JDAO3COLUMBIA-JOHN DAY DAM11-13-2018INFLOW (KAF)290613256289
75FCFM8NF FLATHEAD-NEAR COLUMBIA FALLS11-13-2018DISCHARGE (KAF)15817590
76TONW1OKANOGAN-NEAR TONASKET11-13-2018DISCHARGE (KAF)25828491
77WELW1COLUMBIA-WELLS DAM11-13-2018INFLOW (KAF)208232278791
78MODO3DESCHUTES-AT MOODY NR BIGGS11-13-2018DISCHARGE (KAF)1351148391
79CHJW1COLUMBIA-CHIEF JOSEPH DAM11-13-2018INFLOW (KAF)204742235492
80CHDW1CHELAN-LAKE CHELAN DAM11-13-2018INFLOW (KAF)14916192
81RRHW1COLUMBIA-ROCKY REACH DAM11-13-2018INFLOW (KAF)214242332292
82WHBI1SALMON-AT WHITEBIRD11-13-2018DISCHARGE (KAF)975105892
83LYDM8KOOTENAI-LIBBY DAM11-13-2018INFLOW (KAF)75380993
84HALI1BIG WOOD-AT HAILEY11-13-2018DISCHARGE (KAF)343793
85HHWM8SF FLATHEAD-HUNGRY HORSE DAM11-13-2018INFLOW (KAF)22423894
86RIDI1WILLOW CREEK-RIRIE DAM11-13-2018INFLOW (KAF)9996
87CHEI1FALL RIVER-NEAR CHESTER11-13-2018DISCHARGE (KAF)10911198
88PLDI1SF SNAKE-PALISADES DAM11-13-2018INFLOW (KAF)58659898
89ALPW4SNAKE-NEAR ALPINE11-13-2018DISCHARGE (KAF)374371101
90MYKO3MCKAY CREEK-NEAR PILOT ROCK11-13-2018DISCHARGE (KAF)2525101
91SRGM8CLARK FORK-AT ST REGIS11-13-2018DISCHARGE (KAF)758744102
92ANTI1HENRYS FORK-AT ST. ANTHONY11-13-2018DISCHARGE (KAF)349341102
93PRWW1COLUMBIA-PRIEST RAPIDS DAM11-13-2018INFLOW (KAF)2165020709105
94WANW1COLUMBIA-WANAPUM DAM11-13-2018INFLOW (KAF)2165020411106
95UMAO3UMATILLA-NEAR UMATILLA11-13-2018DISCHARGE (KAF)118111106
96BELM8CLARK FORK-BELOW MISSOULA11-13-2018DISCHARGE (KAF)602561107
97REXI1HENRYS FORK-AT REXBURG11-13-2018DISCHARGE (KAF)456427107
98JKSW4SNAKE-NEAR JACKSON11-13-2018DISCHARGE (KAF)321299107
99PARI1BOISE-NEAR PARMA11-13-2018DISCHARGE (KAF)230214107
100HWRI1BIG LOST-AT HOWELL RANCH NEAR CHILLY11-13-2018DISCHARGE (KAF)2119108
101GCDW1COLUMBIA-GRAND COULEE DAM11-13-2018INFLOW (KAF)1887517162110
102DLGM8CLARK FORK-AT DEER LODGE11-13-2018DISCHARGE (KAF)7361118
103TEAI1TETON-NEAR ST. ANTHONY11-13-2018DISCHARGE (KAF)11497118
104RCCM8ROCK CREEK-NEAR CLINTON11-13-2018DISCHARGE (KAF)5546119
105ABOM8CLARK FORK-ABOVE MISSOULA11-13-2018DISCHARGE (KAF)411333123
106BONM8BLACKFOOT-NEAR BONNER11-13-2018DISCHARGE (KAF)186131141
107LEOI1KOOTENAI-AT LEONIA11-13-2018DISCHARGE (KAF)25221357186
108BIGI1BOISE-AT GLENWOOD BRIDGE11-13-2018DISCHARGE (KAF)10139257
109MACI1BIG LOST-MACKAY RESERVOIR NEAR MACKAY11-13-2018INFLOW (KAF)374872
110BFEI1KOOTENAI-AT BONNERS FERRY11-13-2018STAGE (FT)MMM
111DRMM8CLARK FORK-NR DRUMMOND11-13-2018DISCHARGE (KAF)155MM
112HOPI1PEND OREILLE-PEND OREILLE LAKE NR HOPE11-13-2018LAKE ELEVATION (FT)MMM
113SPOW1SPOKANE-AT SPOKANE11-13-2018DISCHARGE (KAF)386MM
114SJMI1ST JOE-AT ST MARIES11-13-2018STAGE (FT)MMM
115CIBW1COLUMBIA-AT INTL BOUNDARY11-13-2018DISCHARGE (KAF)18071MM
116LUCI1BOISE-LUCKY PEAK DAM11-13-2018INFLOW (KAF)99MM